Weather History for Wooster, OH

Change the Weather History Date:

Tuesday, April 23, 2013

  Actual Average Record
Temperature  
Mean Temperature 54 °F -  
Max Temperature 71 °F 59 °F 79 °F (2001)
Min Temperature 37 °F 37 °F 32 °F (2003)
Degree Days  
Heating Degree Days 12    
Growing Degree Days 4 (Base 50)    
Moisture  
Dew Point 36 °F    
Average Humidity 51    
Maximum Humidity 73    
Minimum Humidity 33    
Precipitation  
Precipitation 0.00 in - - ()
Sea Level Pressure  
Sea Level Pressure 30.09 in    
Wind  
Wind Speed 8 mph (South)    
Max Wind Speed 17 mph    
Max Gust Speed 23 mph    
Visibility 10 miles    
Events      
Averages and records for this station are not official NWS values.
T = Trace of Precipitation, MM = Missing Value Source: NWS Daily Summary

Daily Weather History Graph

Daily Weather History Graph

Search for Another Location

Airport:

Trip Planner

Search our weather history database for the weather conditions in past years. The results will help you decide how hot, cold, wet, or windy it might be!

Date:

Astronomy

Apr. 23, 2013 Rise Set
Actual Time 6:36 AM EDT 8:15 PM EDT
Civil Twilight 6:07 AM EDT 8:45 PM EDT
Nautical Twilight 5:32 AM EDT 9:20 PM EDT
Astronomical Twilight 4:54 AM EDT 9:58 PM EDT
Moon 6:08 PM EDT (4/23) 5:04 AM EDT (4/23)
Length of Visible Light 14h 37m
Length of Day
13h 39m
Waxing Gibbous, 94% of the Moon is Illuminated
Apr 23
Waxing Gibbous
Apr 25
Full
May 2
Last Quarter
May 9
New
May 18
First Quarter

Hourly Weather History & Observations

Time (EDT) Temp. Windchill Dew Point Humidity Pressure Visibility Wind Dir Wind Speed Gust Speed Precip Events Conditions
12:56 AM 46.0 °F 43.9 °F 28.9 °F 51% 30.23 in 10.0 mi SSE 4.6 mph - N/A   Clear
1:56 AM 43.0 °F 40.3 °F 28.0 °F 56% 30.22 in 10.0 mi SE 4.6 mph - N/A   Clear
2:56 AM 42.1 °F 38.4 °F 28.0 °F 58% 30.21 in 10.0 mi ESE 5.8 mph - N/A   Clear
3:56 AM 39.0 °F 35.7 °F 28.9 °F 67% 30.20 in 10.0 mi ESE 4.6 mph - N/A   Clear
4:56 AM 37.9 °F 32.7 °F 28.9 °F 70% 30.20 in 10.0 mi SE 6.9 mph - N/A   Clear
5:56 AM 37.9 °F 32.1 °F 30.0 °F 73% 30.19 in 10.0 mi SE 8.1 mph - N/A   Clear
6:56 AM 39.0 °F 32.8 °F 30.9 °F 73% 30.19 in 10.0 mi SE 9.2 mph - N/A   Clear
7:56 AM 43.0 °F 38.2 °F 33.1 °F 68% 30.18 in 10.0 mi SSE 8.1 mph - N/A   Clear
8:56 AM 48.9 °F - 33.1 °F 54% 30.19 in 10.0 mi South 10.4 mph - N/A   Clear
9:56 AM 53.1 °F - 34.0 °F 48% 30.17 in 10.0 mi South 12.7 mph - N/A   Clear
10:56 AM 57.9 °F - 35.1 °F 42% 30.17 in 10.0 mi South 9.2 mph - N/A   Scattered Clouds
11:56 AM 61.0 °F - 37.9 °F 42% 30.12 in 10.0 mi SSE 8.1 mph - N/A   Clear
12:56 PM 64.9 °F - 39.9 °F 40% 30.10 in 10.0 mi South 13.8 mph - N/A   Clear
1:56 PM 68.0 °F - 39.9 °F 36% 30.07 in 10.0 mi South 13.8 mph 20.7 mph N/A   Clear
2:56 PM 69.1 °F - 39.9 °F 35% 30.04 in 10.0 mi South 13.8 mph - N/A   Clear
3:56 PM 70.0 °F - 39.9 °F 33% 30.01 in 10.0 mi SSW 13.8 mph 19.6 mph N/A   Clear
4:56 PM 69.1 °F - 39.9 °F 35% 30.00 in 10.0 mi SW 11.5 mph 20.7 mph N/A   Partly Cloudy
5:56 PM 68.0 °F - 41.0 °F 37% 29.99 in 10.0 mi SW 17.3 mph 23.0 mph N/A   Clear
6:56 PM 66.9 °F - 41.0 °F 39% 29.97 in 10.0 mi SSW 11.5 mph 17.3 mph N/A   Clear
7:56 PM 64.0 °F - 42.1 °F 45% 29.96 in 10.0 mi South 5.8 mph - N/A   Clear
8:56 PM 60.1 °F - 44.1 °F 55% 29.95 in 10.0 mi South 4.6 mph - N/A   Mostly Cloudy
9:56 PM 59.0 °F - 43.0 °F 55% 29.95 in 10.0 mi South 5.8 mph - N/A   Mostly Cloudy
10:56 PM 60.1 °F - 43.0 °F 53% 29.92 in 10.0 mi South 5.8 mph - N/A   Overcast
11:56 PM 57.9 °F - 43.0 °F 58% 29.90 in 10.0 mi South 6.9 mph - 0.00 in   Mostly Cloudy